sat.trackr.live / text

‹ back to catalog

STARLINK-6092

NORAD 56121 · 2023-046AE

PAYLOAD ACTIVE UNKNOWN

§ Identity

Operator
Country
US
Launch date
2023-03-29
Launch site
AFETR
Launch vehicle
Mass (kg)
RCS (m²)

Purposes: comms

External: N2YO · Heavens-Above · Gunter

§ Orbital elements

Epoch: 2026-05-25T03:57:54.563040Z

Period
94.27 min
Inclination
43.0015°
Eccentricity
0.0000839
Mean motion
15.27575690 rev/d
Perigee alt
482.5 km
Apogee alt
483.6 km
Semi-major
6,861.2 km
B*
9.6556e-6
RAAN
75.3065°
Arg perigee
243.6826°
Mean anomaly
116.3939°
Rev number
17,389

§ Raw data

STARLINK-60921 56121U 23046AE  26145.16521485  .00000004  00000+0  96556-5 0  99992 56121  43.0015  75.3065 0000839 243.6826 116.3939 15.27575690173894

JSON: /api/v1/satellites/56121 · /tle

For live sub-satellite position, see the globe view (requires WebGL).

§ Visibility from observer

Set your observer location to see the next 7 days of passes ≥ 10°. The values pass through the URL so the page stays shareable.

No JS? Fill the form by hand. The geolocation button needs JavaScript.